Hourly Weather Bartkowo

Today, 19 April, Monday

Time Temperature Precipitation Wind Pressure Humidity
00:00 +6°C° 0 mm 2 mps 763 mmHg 89%
01:00 +6°C° 0 mm 2 mps 763 mmHg 90%
02:00 +6°C° 0 mm 2 mps 763 mmHg 90%
03:00 +8°C° 0 mm 1 mps 762 mmHg 89%
04:00 +8°C° 0 mm 1 mps 762 mmHg 89%
05:00 +7°C° 0 mm 2 mps 762 mmHg 88%
06:00 +8°C° 0 mm 2 mps 762 mmHg 87%
07:00 +9°C° 0 mm 2 mps 762 mmHg 85%
08:00 +10°C° 0 mm 3 mps 762 mmHg 77%
09:00 +12°C° 0 mm 3 mps 762 mmHg 69%
10:00 +13°C° 0 mm 4 mps 761 mmHg 60%
11:00 +14°C° 0 mm 4 mps 761 mmHg 58%
12:00 +17°C° 0 mm 4 mps 761 mmHg 56%
13:00 +18°C° 0 mm 3 mps 761 mmHg 53%
14:00 +18°C° 0.2 mm 4 mps 760 mmHg 55%
15:00 +17°C° 0.2 mm 4 mps 760 mmHg 57%
16:00 +17°C° 0.2 mm 4 mps 760 mmHg 59%
17:00 +14°C° 0.4 mm 4 mps 760 mmHg 66%
18:00 +11°C° 0.4 mm 3 mps 760 mmHg 73%
19:00 +9°C° 0.4 mm 3 mps 760 mmHg 80%
20:00 +8°C° 0 mm 3 mps 760 mmHg 80%
21:00 +8°C° 0 mm 3 mps 760 mmHg 80%
22:00 +7°C° 0 mm 3 mps 760 mmHg 80%
23:00 +7°C° 0 mm 3 mps 760 mmHg 78%

Tomorrow, 20 April, Tuesday

Time Temperature Precipitation Wind Pressure Humidity
00:00 +7°C° 0 mm 3 mps 760 mmHg 77%
01:00 +6°C° 0 mm 2 mps 759 mmHg 76%
02:00 +6°C° 0 mm 2 mps 759 mmHg 77%
03:00 +6°C° 0 mm 2 mps 759 mmHg 78%
04:00 +5°C° 0 mm 2 mps 759 mmHg 79%
05:00 +6°C° 0 mm 2 mps 759 mmHg 76%
06:00 +7°C° 0 mm 2 mps 759 mmHg 74%
07:00 +8°C° 0 mm 2 mps 759 mmHg 71%
08:00 +9°C° 0 mm 2 mps 759 mmHg 65%
09:00 +12°C° 0 mm 2 mps 759 mmHg 60%
10:00 +14°C° 0 mm 2 mps 759 mmHg 54%
11:00 +15°C° 0 mm 2 mps 759 mmHg 50%
12:00 +16°C° 0 mm 2 mps 758 mmHg 47%
13:00 +17°C° 0 mm 2 mps 758 mmHg 44%
14:00 +16°C° 0 mm 3 mps 758 mmHg 44%
15:00 +16°C° 0 mm 3 mps 757 mmHg 45%
16:00 +15°C° 0 mm 4 mps 757 mmHg 46%
17:00 +13°C° 0 mm 3 mps 757 mmHg 56%
18:00 +10°C° 0 mm 3 mps 757 mmHg 66%
19:00 +8°C° 0 mm 3 mps 757 mmHg 76%
20:00 +7°C° 0 mm 3 mps 757 mmHg 81%
21:00 +6°C° 0 mm 2 mps 757 mmHg 85%
22:00 +5°C° 0 mm 2 mps 757 mmHg 90%
23:00 +5°C° 0 mm 2 mps 757 mmHg 91%

Day after tomorrow, 21 April, Wednesday

Time Temperature Precipitation Wind Pressure Humidity
00:00 +5°C° 0 mm 2 mps 757 mmHg 92%
01:00 +5°C° 0 mm 2 mps 757 mmHg 93%
02:00 +4°C° 0 mm 2 mps 757 mmHg 93%
03:00 +4°C° 0 mm 2 mps 757 mmHg 93%
04:00 +4°C° 0 mm 2 mps 756 mmHg 94%
05:00 +5°C° 0 mm 2 mps 757 mmHg 88%
06:00 +6°C° 0 mm 2 mps 757 mmHg 83%
07:00 +7°C° 0 mm 2 mps 757 mmHg 78%
08:00 +9°C° 0 mm 3 mps 756 mmHg 71%
09:00 +11°C° 0 mm 3 mps 756 mmHg 64%
10:00 +13°C° 0 mm 3 mps 756 mmHg 57%
11:00 +13°C° 0 mm 4 mps 756 mmHg 53%
12:00 +14°C° 0 mm 4 mps 755 mmHg 50%
13:00 +15°C° 0 mm 5 mps 755 mmHg 47%
14:00 +13°C° 0.1 mm 6 mps 755 mmHg 57%
15:00 +11°C° 0.1 mm 7 mps 755 mmHg 67%
16:00 +9°C° 0.1 mm 8 mps 755 mmHg 76%
17:00 +8°C° 0 mm 6 mps 755 mmHg 78%
18:00 +7°C° 0 mm 4 mps 755 mmHg 80%
19:00 +7°C° 0 mm 3 mps 756 mmHg 82%
20:00 +5°C° 0 mm 3 mps 756 mmHg 81%
21:00 +4°C° 0 mm 4 mps 756 mmHg 80%
22:00 +2°C° 0 mm 5 mps 756 mmHg 80%
23:00 +1°C° 0 mm 5 mps 756 mmHg 79%

22 April, Thursday

Time Temperature Precipitation Wind Pressure Humidity
00:00 +1°C° 0 mm 5 mps 756 mmHg 78%
01:00 -1°C° 0 mm 6 mps 756 mmHg 77%
02:00 -1°C° 0 mm 6 mps 755 mmHg 75%
03:00 -1°C° 0 mm 7 mps 755 mmHg 74%
04:00 0°C° 0 mm 7 mps 755 mmHg 73%
05:00 0°C° 0 mm 7 mps 755 mmHg 73%
06:00 0°C° 0 mm 7 mps 755 mmHg 74%
07:00 +2°C° 0 mm 7 mps 755 mmHg 74%
08:00 +1°C° 0 mm 8 mps 755 mmHg 72%
09:00 +2°C° 0 mm 8 mps 755 mmHg 70%
10:00 +4°C° 0 mm 8 mps 755 mmHg 67%
11:00 +4°C° 0.2 mm 8 mps 755 mmHg 68%
12:00 +4°C° 0.2 mm 8 mps 755 mmHg 69%
13:00 +4°C° 0.2 mm 8 mps 755 mmHg 70%
14:00 +4°C° 0.5 mm 7 mps 755 mmHg 74%
15:00 +4°C° 0.5 mm 7 mps 756 mmHg 78%
16:00 +3°C° 0.5 mm 6 mps 756 mmHg 82%
17:00 +3°C° 0.2 mm 6 mps 756 mmHg 83%
18:00 +2°C° 0.2 mm 6 mps 756 mmHg 84%
19:00 +2°C° 0.2 mm 7 mps 757 mmHg 85%
20:00 +1°C° 0 mm 6 mps 757 mmHg 86%
21:00 +1°C° 0 mm 6 mps 757 mmHg 86%
22:00 +1°C° 0 mm 5 mps 758 mmHg 87%
23:00 0°C° 0 mm 5 mps 758 mmHg 89%

23 April, Friday

Time Temperature Precipitation Wind Pressure Humidity
00:00 0°C° 0 mm 5 mps 758 mmHg 90%
01:00 0°C° 0 mm 4 mps 759 mmHg 91%
02:00 +1°C° 0 mm 4 mps 759 mmHg 89%
03:00 +1°C° 0 mm 4 mps 759 mmHg 87%
04:00 +3°C° 0 mm 4 mps 759 mmHg 85%
05:00 +3°C° 0 mm 4 mps 760 mmHg 85%
06:00 +3°C° 0 mm 4 mps 761 mmHg 86%
07:00 +3°C° 0 mm 4 mps 761 mmHg 86%
08:00 +5°C° 0.1 mm 5 mps 762 mmHg 76%
09:00 +6°C° 0.1 mm 5 mps 762 mmHg 66%
10:00 +7°C° 0.1 mm 6 mps 763 mmHg 56%
11:00 +8°C° 0 mm 6 mps 763 mmHg 49%
12:00 +9°C° 0 mm 6 mps 763 mmHg 42%
13:00 +9°C° 0 mm 6 mps 763 mmHg 34%
14:00 +9°C° 0 mm 6 mps 764 mmHg 35%
15:00 +9°C° 0 mm 5 mps 764 mmHg 36%
16:00 +10°C° 0 mm 4 mps 764 mmHg 36%
17:00 +8°C° 0 mm 3 mps 764 mmHg 42%
18:00 +7°C° 0 mm 2 mps 764 mmHg 48%
19:00 +7°C° 0 mm 1 mps 764 mmHg 54%
20:00 +5°C° 0 mm 2 mps 763 mmHg 56%
21:00 +5°C° 0 mm 2 mps 763 mmHg 57%
22:00 +3°C° 0 mm 3 mps 763 mmHg 58%
23:00 +3°C° 0 mm 3 mps 763 mmHg 65%

24 April, Saturday

Time Temperature Precipitation Wind Pressure Humidity
00:00 +3°C° 0 mm 4 mps 762 mmHg 71%
01:00 +3°C° 0 mm 4 mps 762 mmHg 78%
02:00 +3°C° 0 mm 4 mps 762 mmHg 83%
03:00 +1°C° 0 mm 5 mps 762 mmHg 88%
04:00 0°C° 0 mm 5 mps 762 mmHg 94%
05:00 +1°C° 0 mm 5 mps 762 mmHg 90%
06:00 +2°C° 0 mm 5 mps 762 mmHg 86%
07:00 +2°C° 0 mm 6 mps 762 mmHg 83%
08:00 +3°C° 0 mm 6 mps 762 mmHg 81%
09:00 +4°C° 0 mm 6 mps 762 mmHg 79%
10:00 +5°C° 0 mm 6 mps 762 mmHg 77%
11:00 +5°C° 0.1 mm 6 mps 762 mmHg 74%
12:00 +7°C° 0.1 mm 6 mps 762 mmHg 71%
13:00 +7°C° 0.1 mm 6 mps 762 mmHg 68%
14:00 +7°C° 0.2 mm 6 mps 763 mmHg 62%
15:00 +8°C° 0.2 mm 6 mps 763 mmHg 57%
16:00 +8°C° 0.2 mm 5 mps 763 mmHg 52%
17:00 +6°C° 0 mm 4 mps 764 mmHg 56%
18:00 +5°C° 0 mm 3 mps 764 mmHg 60%
19:00 +4°C° 0 mm 2 mps 764 mmHg 64%
20:00 +2°C° 0 mm 3 mps 765 mmHg 67%
21:00 +1°C° 0 mm 3 mps 765 mmHg 70%
22:00 0°C° 0 mm 3 mps 766 mmHg 73%
23:00 0°C° 0 mm 3 mps 766 mmHg 76%
Show more